| time (UTC) | temp F | wind direction | speed MPH | gust MPH | rain 1hr in | rain 24hr in | rain mn in | humidity % | barometer mb |
| 20260831114559 | 0 | 0.0 | 0.0 | 0.00 | 0.07 | 0.02 | 1012.9 | ||
| 20260831113054 | 0 | 0.0 | 0.0 | 0.00 | 0.07 | 0.02 | 1012.7 | ||
| 20260831111553 | 0 | 0.0 | 0.0 | 0.00 | 0.07 | 0.02 | 1012.8 | ||
| 20260831110046 | 0 | 0.0 | 0.0 | 0.00 | 0.07 | 0.02 | 1012.5 | ||
| 20260831104512 | 0 | 0.0 | 0.0 | 0.00 | 0.07 | 0.02 | 1012.7 | ||
| 20260831103009 | 0 | 127 | 0.0 | 0.0 | 0.00 | 0.07 | 0.02 | 1012.7 | |
| 20260831101503 | 71 | 151 | 0.0 | 0.0 | 0.00 | 0.07 | 0.02 | 83 | 1012.7 |
| 20260831100002 | 72 | 108 | 0.0 | 0.0 | 0.00 | 0.07 | 0.02 | 82 | 1012.7 |
| 20260831094504 | 72 | 117 | 0.0 | 0.0 | 0.00 | 0.07 | 0.02 | 81 | 1012.6 |
| 20260831093000 | 73 | 158 | 0.0 | 1.0 | 0.00 | 0.07 | 0.02 | 81 | 1012.8 |
| 20260831091614 | 73 | 96 | 0.0 | 2.0 | 0.00 | 0.07 | 0.02 | 80 | 1012.8 |
| 20260831084559 | 73 | 266 | 0.0 | 4.0 | 0.00 | 0.07 | 0.02 | 79 | 1012.6 |
| 20260831083059 | 73 | 200 | 0.0 | 3.0 | 0.00 | 0.07 | 0.02 | 80 | 1012.7 |
| 20260831081534 | 73 | 249 | 0.0 | 3.0 | 0.00 | 0.07 | 0.02 | 81 | 1012.7 |
| 20260831080026 | 72 | 32 | 0.0 | 2.0 | 0.00 | 0.07 | 0.02 | 83 | 1012.7 |
| 20260831074527 | 72 | 148 | 0.0 | 1.0 | 0.00 | 0.07 | 0.02 | 84 | 1012.7 |
| 20260831073022 | 72 | 140 | 0.0 | 0.0 | 0.00 | 0.07 | 0.02 | 85 | 1012.8 |
| 20260831071521 | 72 | 98 | 0.0 | 0.0 | 0.00 | 0.07 | 0.02 | 85 | 1013.1 |
| 20260831070021 | 72 | 124 | 0.0 | 0.0 | 0.00 | 0.07 | 0.02 | 86 | 1013.3 |
| 20260831064520 | 71 | 124 | 0.0 | 0.0 | 0.00 | 0.07 | 0.02 | 87 | 1013.2 |
| 20260831063049 | 72 | 124 | 0.0 | 0.0 | 0.00 | 0.07 | 0.02 | 87 | 1013.1 |
| 20260831061547 | 73 | 124 | 0.0 | 0.0 | 0.00 | 0.07 | 0.02 | 87 | 1013.1 |
| 20260831060015 | 73 | 113 | 0.0 | 0.0 | 0.00 | 0.07 | 0.02 | 87 | 1012.9 |
| 20260831054515 | 73 | 113 | 0.0 | 0.0 | 0.00 | 0.07 | 0.02 | 87 | 1013.0 |
| 20260831053033 | 74 | 89 | 0.0 | 1.0 | 0.00 | 0.07 | 0.02 | 87 | 1012.8 |
| 20260831051511 | 74 | 72 | 0.0 | 2.0 | 0.01 | 0.07 | 0.02 | 87 | 1012.8 |
| 20260831050011 | 74 | 120 | 0.0 | 5.0 | 0.01 | 0.07 | 0.02 | 87 | 1012.8 |
| 20260831044513 | 74 | 77 | 0.0 | 5.0 | 0.01 | 0.07 | 0.02 | 88 | 1013.0 |
| 20260831043043 | 73 | 245 | 0.0 | 1.0 | 0.01 | 0.07 | 0.02 | 89 | 1013.0 |
| 20260831041542 | 73 | 119 | 0.0 | 1.0 | 0.00 | 0.06 | 0.01 | 90 | 1013.2 |
| 20260831040037 | 73 | 94 | 0.0 | 0.0 | 0.00 | 0.06 | 0.01 | 90 | 1013.6 |
| 20260831034536 | 73 | 93 | 0.0 | 0.0 | 0.00 | 0.06 | 0.01 | 90 | 1013.9 |
| 20260831033046 | 74 | 138 | 0.0 | 0.0 | 0.00 | 0.06 | 0.01 | 89 | 1014.3 |
| 20260831031536 | 74 | 184 | 0.0 | 0.0 | 0.00 | 0.06 | 0.01 | 89 | 1014.0 |
| 20260831030029 | 74 | 242 | 0.0 | 3.0 | 0.00 | 0.06 | 0.01 | 89 | 1013.9 |
| 20260831024529 | 73 | 217 | 0.0 | 2.0 | 0.00 | 0.06 | 0.01 | 89 | 1013.9 |
| 20260831023035 | 73 | 119 | 0.0 | 0.0 | 0.00 | 0.06 | 0.01 | 90 | 1013.9 |
| 20260831021536 | 73 | 119 | 0.0 | 0.0 | 0.00 | 0.06 | 0.01 | 89 | 1014.2 |
| 20260831020053 | 74 | 119 | 0.0 | 0.0 | 0.00 | 0.06 | 0.01 | 88 | 1014.1 |
| 20260831014524 | 74 | 119 | 0.0 | 0.0 | 0.00 | 0.06 | 0.01 | 88 | 1013.7 |
| 20260831013026 | 74 | 119 | 0.0 | 0.0 | 0.00 | 0.06 | 0.01 | 87 | 1013.5 |
| 20260831011526 | 74 | 141 | 0.0 | 2.0 | 0.00 | 0.06 | 0.01 | 88 | 1012.9 |
| 20260831010021 | 74 | 127 | 0.0 | 1.0 | 0.00 | 0.06 | 0.01 | 88 | 1013.0 |
| 20260831004520 | 74 | 96 | 0.0 | 0.0 | 0.00 | 0.06 | 0.01 | 88 | 1013.3 |
| 20260831003019 | 74 | 96 | 0.0 | 1.0 | 0.00 | 0.06 | 0.01 | 88 | 1013.4 |
| 20260831001525 | 75 | 129 | 0.0 | 0.0 | 0.00 | 0.06 | 0.01 | 88 | 1013.5 |
| 20260831000021 | 75 | 129 | 0.0 | 0.0 | 0.00 | 0.06 | 0.01 | 87 | 1013.7 |
| 20260830234530 | 76 | 129 | 0.0 | 1.0 | 0.00 | 0.06 | 0.01 | 87 | 1013.6 |
| 20260830233116 | 77 | 129 | 0.0 | 0.0 | 0.00 | 0.06 | 0.01 | 85 | 1014.2 |
| 20260830231518 | 77 | 129 | 0.0 | 1.0 | 0.00 | 0.06 | 0.01 | 83 | 1014.3 |
| 20260830230043 | 77 | 129 | 0.0 | 1.0 | 0.00 | 0.06 | 0.01 | 82 | 1014.3 |
| 20260830224544 | 77 | 129 | 0.0 | 1.0 | 0.00 | 0.06 | 0.01 | 82 | 1013.9 |
| 20260830223012 | 78 | 61 | 0.0 | 2.0 | 0.00 | 0.06 | 0.01 | 82 | 1013.7 |
| 20260830221514 | 78 | 139 | 0.0 | 2.0 | 0.00 | 0.06 | 0.01 | 82 | 1013.9 |
| 20260830220047 | 78 | 113 | 0.0 | 2.0 | 0.00 | 0.06 | 0.01 | 81 | 1014.1 |
| 20260830214544 | 78 | 98 | 0.0 | 2.0 | 0.00 | 0.06 | 0.01 | 83 | 1014.3 |
| 20260830213016 | 77 | 86 | 0.0 | 2.0 | 0.00 | 0.06 | 0.01 | 84 | 1014.7 |
| 20260830211509 | 77 | 98 | 0.0 | 2.0 | 0.00 | 0.06 | 0.01 | 84 | 1014.5 |
| 20260830210051 | 78 | 55 | 0.0 | 2.0 | 0.01 | 0.06 | 0.01 | 83 | 1014.6 |
| 20260830204537 | 78 | 342 | 1.0 | 3.0 | 0.01 | 0.06 | 0.01 | 80 | 1014.6 |
| 20260830203044 | 77 | 257 | 0.0 | 1.0 | 0.01 | 0.06 | 0.01 | 83 | 1014.2 |
| 20260830201533 | 77 | 112 | 0.0 | 2.0 | 0.01 | 0.06 | 0.01 | 82 | 1014.0 |
| 20260830200035 | 78 | 264 | 0.0 | 4.0 | 0.00 | 0.05 | 0.00 | 78 | 1014.5 |
| 20260830194530 | 79 | 218 | 0.0 | 6.0 | 0.00 | 0.05 | 0.00 | 75 | 1014.4 |
| 20260830193027 | 80 | 255 | 2.0 | 7.0 | 0.00 | 0.05 | 0.00 | 73 | 1013.9 |
| 20260830191530 | 81 | 264 | 2.0 | 8.0 | 0.00 | 0.05 | 0.00 | 71 | 1013.7 |
| 20260830190025 | 82 | 250 | 2.0 | 7.0 | 0.00 | 0.05 | 0.00 | 71 | 1013.5 |
| 20260830184521 | 81 | 181 | 1.0 | 5.0 | 0.00 | 0.05 | 0.00 | 72 | 1013.6 |
| 20260830183053 | 81 | 137 | 1.0 | 8.0 | 0.00 | 0.05 | 0.00 | 71 | 1013.4 |
| 20260830181547 | 80 | 143 | 0.0 | 8.0 | 0.00 | 0.05 | 0.00 | 73 | 1013.5 |
| 20260830180041 | 79 | 119 | 2.0 | 6.0 | 0.00 | 0.05 | 0.00 | 74 | 1013.8 |
| 20260830174542 | 79 | 68 | 1.0 | 7.0 | 0.00 | 0.05 | 0.00 | 74 | 1013.7 |
| 20260830173037 | 78 | 134 | 3.0 | 8.0 | 0.00 | 0.05 | 0.00 | 74 | 1013.9 |
| 20260830171535 | 77 | 280 | 3.0 | 7.0 | 0.00 | 0.05 | 0.00 | 76 | 1014.0 |
| 20260830170029 | 76 | 186 | 2.0 | 7.0 | 0.00 | 0.05 | 0.00 | 76 | 1014.4 |
| 20260830164534 | 76 | 209 | 2.0 | 7.0 | 0.00 | 0.05 | 0.05 | 78 | 1014.5 |
| 20260830163028 | 74 | 222 | 1.0 | 6.0 | 0.00 | 0.05 | 0.05 | 80 | 1013.9 |
| 20260830161539 | 73 | 140 | 1.0 | 5.0 | 0.00 | 0.05 | 0.05 | 82 | 1013.9 |
| 20260830160026 | 72 | 291 | 1.0 | 5.0 | 0.00 | 0.05 | 0.05 | 85 | 1013.9 |
| 20260830154533 | 70 | 282 | 0.0 | 5.0 | 0.00 | 0.05 | 0.05 | 86 | 1013.9 |
| 20260830153036 | 69 | 278 | 1.0 | 5.0 | 0.00 | 0.05 | 0.05 | 88 | 1014.1 |
| 20260830151523 | 68 | 323 | 1.0 | 6.0 | 0.01 | 0.05 | 0.05 | 89 | 1014.3 |
| 20260830150021 | 67 | 141 | 1.0 | 4.0 | 0.02 | 0.05 | 0.05 | 90 | 1014.5 |
| 20260830144520 | 67 | 168 | 1.0 | 7.0 | 0.03 | 0.05 | 0.05 | 90 | 1014.4 |
| 20260830143026 | 67 | 262 | 0.0 | 5.0 | 0.04 | 0.05 | 0.05 | 90 | 1014.4 |
| 20260830141520 | 67 | 266 | 0.0 | 2.0 | 0.04 | 0.04 | 0.04 | 90 | 1015.1 |
| 20260830140024 | 67 | 108 | 0.0 | 4.0 | 0.03 | 0.03 | 0.03 | 89 | 1015.5 |
| 20260830140022 | 67 | 107 | 0.0 | 4.0 | 0.03 | 0.03 | 0.03 | 89 | 1015.5 |
| 20260830134526 | 67 | 84 | 0.0 | 1.0 | 0.02 | 0.02 | 0.02 | 89 | 1015.4 |
| 20260830133014 | 67 | 193 | 0.0 | 1.0 | 0.01 | 0.01 | 0.01 | 89 | 1016.0 |
| 20260830131512 | 67 | 183 | 0.0 | 2.0 | 0.00 | 0.00 | 0.00 | 88 | 1016.0 |
| 20260830130008 | 0 | 0.0 | 0.0 | 0.00 | 0.00 | 0.00 | 1015.8 | ||
| 20260830124502 | 0 | 0.0 | 0.0 | 0.00 | 0.00 | 0.00 | 1015.5 | ||
| 20260830123058 | 0 | 0.0 | 0.0 | 0.00 | 0.00 | 0.00 | 1015.6 | ||
| 20260830121554 | 0 | 0.0 | 0.0 | 0.00 | 0.00 | 0.00 | 1015.2 | ||
| 20260830120054 | 0 | 0.0 | 0.0 | 0.00 | 0.00 | 0.00 | 1015.0 |